Weather History for Marietta, GA

Change the Weather History Date:

Tuesday, February 12, 2013

  Actual Average Record
Temperature  
Mean Temperature 50 °F -  
Max Temperature 55 °F 53 °F 68 °F (2007)
Min Temperature 44 °F 35 °F 19 °F (2012)
Degree Days  
Heating Degree Days 16    
Moisture  
Dew Point 43 °F    
Average Humidity 86    
Maximum Humidity 100    
Minimum Humidity 41    
Precipitation  
Precipitation 0.24 in - - ()
Sea Level Pressure  
Sea Level Pressure 29.99 in    
Wind  
Wind Speed 6 mph (North)    
Max Wind Speed 14 mph    
Max Gust Speed 18 mph    
Visibility 10 miles    
Events Rain    
Averages and records for this station are not official NWS values.
T = Trace of Precipitation, MM = Missing Value Source: NWS Daily Summary

Daily Weather History Graph

Daily Weather History Graph

Search for Another Location

Airport:

Trip Planner

Search our weather history database for the weather conditions in past years. The results will help you decide how hot, cold, wet, or windy it might be!

Date:

Astronomy

Feb. 12, 2013 Rise Set
Actual Time 7:25 AM EST 6:19 PM EST
Civil Twilight 6:59 AM EST 6:45 PM EST
Nautical Twilight 6:30 AM EST 7:14 PM EST
Astronomical Twilight 6:01 AM EST 7:43 PM EST
Moon 8:32 AM EST (2/12) 9:08 PM EST (2/12)
Length of Visible Light 11h 45m
Length of Day
10h 54m
Waxing Crescent, 7% of the Moon is Illuminated
Feb 12
Waxing Crescent
Feb 17
First Quarter
Feb 25
Full
Mar 4
Last Quarter
Mar 11
New

Hourly Weather History & Observations

Time (EST) Temp. Windchill Dew Point Humidity Pressure Visibility Wind Dir Wind Speed Gust Speed Precip Events Conditions
12:58 AM 47.7 °F - 46.4 °F 95% 30.12 in 10.0 mi West 6.9 mph - N/A   Mostly Cloudy
1:36 AM 48.2 °F - 46.4 °F 93% 30.10 in 10.0 mi West 5.8 mph - N/A   Light Drizzle
1:46 AM 48.2 °F - 46.4 °F 93% 30.10 in 10.0 mi WSW 4.6 mph - N/A   Scattered Clouds
1:54 AM 48.2 °F - 46.4 °F 93% 30.09 in 10.0 mi WSW 4.6 mph - N/A Rain Light Rain
1:58 AM 47.7 °F - 46.0 °F 94% 30.10 in 10.0 mi West 5.8 mph - 0.00 in   Light Drizzle
2:05 AM 48.2 °F - 46.4 °F 93% 30.08 in 10.0 mi West 4.6 mph - N/A   Partly Cloudy
2:06 AM 48.2 °F - 46.4 °F 93% 30.08 in 10.0 mi West 4.6 mph - N/A   Light Drizzle
2:16 AM 46.4 °F 44.3 °F 46.4 °F 100% 30.09 in 10.0 mi West 4.6 mph - N/A   Mostly Cloudy
3:58 AM 46.8 °F - 45.9 °F 97% 30.12 in 10.0 mi WSW 6.9 mph - N/A   Mostly Cloudy
4:26 AM 46.4 °F - 44.6 °F 93% 30.07 in 10.0 mi Variable 1.2 mph - N/A Rain Light Rain
4:39 AM 46.4 °F 44.3 °F 44.6 °F 93% 30.07 in 10.0 mi WNW 4.6 mph - N/A   Mostly Cloudy
4:58 AM 46.4 °F 44.3 °F 44.4 °F 93% 30.08 in 10.0 mi WNW 4.6 mph - 0.00 in   Overcast
5:21 AM 46.4 °F 43.5 °F 41.0 °F 81% 30.09 in 10.0 mi WNW 5.8 mph - N/A   Light Drizzle
5:33 AM 46.4 °F 42.9 °F 39.2 °F 76% 30.09 in 10.0 mi West 6.9 mph - N/A   Partly Cloudy
5:58 AM 44.6 °F 39.7 °F 41.0 °F 87% 30.11 in 10.0 mi West 9.2 mph - 0.00 in   Mostly Cloudy
6:46 AM 44.6 °F 41.4 °F 39.2 °F 81% 30.11 in 10.0 mi WNW 5.8 mph - N/A Rain Light Rain
6:58 AM 44.4 °F 40.5 °F 39.0 °F 81% 30.12 in 10.0 mi West 6.9 mph - 0.00 in   Light Drizzle
7:58 AM 44.2 °F - 37.8 °F 78% 30.11 in 10.0 mi NNW 2.3 mph - 0.00 in Rain Light Rain
8:11 AM 44.6 °F 42.2 °F 37.4 °F 76% 30.09 in 10.0 mi North 4.6 mph - N/A   Mostly Cloudy
8:58 AM 47.3 °F - 38.3 °F 71% 30.11 in 10.0 mi NW 8.1 mph - 0.00 in   Mostly Cloudy
9:58 AM 49.3 °F - 35.6 °F 59% 30.09 in 10.0 mi Variable 1.2 mph - N/A   Mostly Cloudy
10:58 AM 54.9 °F - 34.9 °F 47% 30.10 in 10.0 mi Variable 1.2 mph - N/A   Mostly Cloudy
11:58 AM 54.5 °F - 32.2 °F 43% 30.08 in 10.0 mi Calm Calm - N/A   Overcast
12:58 PM 55.0 °F - 32.7 °F 43% 30.05 in 10.0 mi Calm Calm - N/A   Overcast
1:53 PM 55.4 °F - 32.0 °F 41% 30.03 in 10.0 mi Calm Calm - N/A Rain Light Rain
1:58 PM 54.7 °F - 33.4 °F 45% 30.04 in 10.0 mi SW 3.5 mph - 0.00 in Rain Light Rain
2:26 PM 51.8 °F - 41.0 °F 67% 30.03 in 10.0 mi WSW 4.6 mph - N/A   Light Drizzle
2:40 PM 51.8 °F - 42.8 °F 71% 30.03 in 10.0 mi West 5.8 mph - N/A Rain Light Rain
2:58 PM 50.9 °F - 42.4 °F 73% 30.03 in 10.0 mi West 1.2 mph - 0.01 in Rain Light Rain
3:53 PM 50.0 °F - 44.6 °F 82% 29.98 in 10.0 mi North 4.6 mph - N/A Rain Light Rain
3:58 PM 48.2 °F - 44.6 °F 87% 29.99 in 7.0 mi NNW 5.8 mph - 0.04 in Rain Light Rain
4:09 PM 48.2 °F - 44.6 °F 87% 29.94 in 7.0 mi North 10.4 mph - N/A   Overcast
4:58 PM 48.0 °F - 44.4 °F 87% 29.92 in 10.0 mi North 5.8 mph - 0.00 in   Overcast
5:09 PM 48.2 °F - 44.6 °F 87% 29.92 in 10.0 mi NNE 3.5 mph - N/A Rain Light Rain
5:58 PM 46.9 °F - 46.0 °F 97% 29.91 in 9.0 mi NNE 9.2 mph - 0.06 in Rain Light Rain
6:56 PM 46.4 °F - 44.6 °F 93% 29.94 in 6.0 mi East 2.3 mph - N/A Rain Rain
6:58 PM 46.9 °F - 45.0 °F 93% 29.96 in 6.0 mi East 2.3 mph - 0.03 in Rain Light Rain
7:58 PM 46.6 °F - 43.0 °F 87% 29.97 in 9.0 mi NE 3.5 mph - 0.04 in Rain Light Rain
8:41 PM 46.4 °F 45.2 °F 44.6 °F 93% 29.93 in 10.0 mi ENE 3.5 mph - N/A   Overcast
8:58 PM 46.4 °F 44.3 °F 45.0 °F 95% 29.94 in 10.0 mi ENE 4.6 mph - 0.01 in   Overcast
9:22 PM 46.4 °F 42.4 °F 44.6 °F 93% 29.92 in 10.0 mi East 8.1 mph - N/A   Light Drizzle
9:34 PM 46.4 °F 41.9 °F 44.6 °F 93% 29.91 in 10.0 mi East 9.2 mph - N/A   Overcast
9:38 PM 46.4 °F 40.4 °F 44.6 °F 93% 29.90 in 9.0 mi East 13.8 mph - N/A Rain Light Rain
9:43 PM 46.4 °F 40.7 °F 44.6 °F 93% 29.89 in 7.0 mi East 12.7 mph - N/A Rain Light Rain
9:58 PM 45.3 °F 39.3 °F 44.2 °F 96% 29.89 in 7.0 mi East 12.7 mph 18.4 mph 0.04 in Rain Light Rain
10:05 PM 44.6 °F 38.4 °F 44.6 °F 100% 29.89 in 10.0 mi East 12.7 mph - N/A   Light Drizzle
10:15 PM 44.6 °F 40.2 °F 44.6 °F 100% 29.90 in 10.0 mi East 8.1 mph - N/A   Overcast
10:45 PM 44.6 °F 38.1 °F 44.6 °F 100% 29.86 in 10.0 mi East 13.8 mph - N/A   Overcast
10:58 PM 45.1 °F 40.8 °F 44.1 °F 96% 29.87 in 10.0 mi East 8.1 mph - 0.00 in   Overcast
11:03 PM 44.6 °F 39.2 °F 44.6 °F 100% 29.85 in 10.0 mi East 10.4 mph - N/A   Overcast
11:13 PM 44.6 °F 40.2 °F 44.6 °F 100% 29.87 in 10.0 mi East 8.1 mph - N/A   Overcast
11:27 PM 44.6 °F 38.8 °F 44.6 °F 100% 29.87 in 10.0 mi East 11.5 mph - N/A   Light Drizzle
11:37 PM 44.6 °F 40.2 °F 44.6 °F 100% 29.85 in 10.0 mi East 8.1 mph - N/A   Light Drizzle
11:47 PM 44.6 °F 39.2 °F 44.6 °F 100% 29.84 in 8.0 mi East 10.4 mph - N/A   Light Drizzle
11:52 PM 44.6 °F 38.4 °F 44.6 °F 100% 29.84 in 8.0 mi East 12.7 mph - N/A   Light Drizzle
11:57 PM 44.6 °F 39.2 °F 44.6 °F 100% 29.85 in 9.0 mi East 10.4 mph - N/A   Light Drizzle
11:58 PM 45.3 °F 40.1 °F 44.4 °F 97% 29.85 in 9.0 mi East 10.4 mph - 0.01 in   Light Drizzle